,,,PA_Meas_PMT16A,,PR_Meas_QMR101_102,,RH_Meas_QMH101,,SR_Meas_QMS101,,TA_Meas_QMH101,,GenWind,,GenWind,
date,time,status,PA,status,PR,status,RH,status,SR,status,TA,status,DirAvg,status,SpdAvg,
2012-01-10, 00:00:04,VALID,1004.46,VALID,0,VALID,83.9024,VALID,0,VALID,25.7285,VALID,353,VALID,1.29531,
2012-01-10, 00:01:04,VALID,1004.48,VALID,0,VALID,84.2,VALID,0.0815089,VALID,25.6876,VALID,358,VALID,1.16953,
2012-01-10, 00:02:04,VALID,1004.44,VALID,0,VALID,83.9329,VALID,0,VALID,25.7071,VALID,357,VALID,1.5793,
2012-01-10, 00:03:04,VALID,1004.45,VALID,0,VALID,83.994,VALID,0,VALID,25.6662,VALID,355,VALID,1.37266,
2012-01-10, 00:04:04,VALID,1004.43,VALID,0,VALID,84.0703,VALID,0,VALID,25.6681,VALID,356,VALID,1.25547,
2012-01-10, 00:05:04,VALID,1004.43,VALID,0,VALID,83.9863,VALID,0,VALID,25.6876,VALID,341,VALID,1.25,
2012-01-10, 00:06:04,VALID,1004.4,VALID,0,VALID,83.849,VALID,0,VALID,25.709,VALID,14,VALID,2.12383,
2012-01-10, 00:07:04,VALID,1004.39,VALID,0,VALID,83.6964,VALID,0,VALID,25.746,VALID,357,VALID,1.94492,
2012-01-10, 00:08:04,VALID,1004.38,VALID,0,VALID,83.7498,VALID,0,VALID,25.7265,VALID,5,VALID,1.45977,
2012-01-10, 00:09:04,VALID,1004.33,VALID,0,VALID,83.7651,VALID,0,VALID,25.748,VALID,359,VALID,1.39063,
2012-01-10, 00:10:04,VALID,1004.35,VALID,0,VALID,83.7575,VALID,0.0815089,VALID,25.748,VALID,356,VALID,1.68086,
2012-01-10, 00:11:04,VALID,1004.32,VALID,0,VALID,83.6049,VALID,0,VALID,25.7071,VALID,353,VALID,1.68867,
2012-01-10, 00:12:04,VALID,1004.29,VALID,0,VALID,83.7956,VALID,0,VALID,25.7285,VALID,2,VALID,1.91758,
2012-01-10, 00:13:04,VALID,1004.28,VALID,0,VALID,83.8338,VALID,0,VALID,25.7071,VALID,355,VALID,1.44531,
2012-01-10, 00:14:04,VALID,1004.27,VALID,0,VALID,83.8261,VALID,0,VALID,25.7071,VALID,17,VALID,1.44766,
2012-01-10, 00:15:04,VALID,1004.25,VALID,0,VALID,83.9558,VALID,0,VALID,25.6876,VALID,12,VALID,1.51602,
2012-01-10, 00:16:04,VALID,1004.24,VALID,0,VALID,83.9787,VALID,0,VALID,25.709,VALID,357,VALID,1.63672,
2012-01-10, 00:17:04,VALID,1004.22,VALID,0,VALID,83.8872,VALID,0,VALID,25.7071,VALID,6,VALID,1.47734,
2012-01-10, 00:18:04,VALID,1004.24,VALID,0,VALID,83.7651,VALID,0,VALID,25.7071,VALID,352,VALID,1.39961,
2012-01-10, 00:19:04,VALID,1004.22,VALID,0,VALID,83.8033,VALID,0,VALID,25.7265,VALID,10,VALID,1.73906,
2012-01-10, 00:20:04,VALID,1004.22,VALID,0,VALID,83.7193,VALID,0,VALID,25.7265,VALID,355,VALID,1.68789,
2012-01-10, 00:21:04,VALID,1004.21,VALID,0,VALID,83.9329,VALID,0,VALID,25.744,VALID,8,VALID,1.43438,
2012-01-10, 00:22:04,VALID,1004.21,VALID,0,VALID,83.9863,VALID,0,VALID,25.7655,VALID,351,VALID,0.829687,
2012-01-10, 00:23:04,VALID,1004.25,VALID,0,VALID,83.9177,VALID,0.0815089,VALID,25.7265,VALID,4,VALID,1.58359,
2012-01-10, 00:24:04,VALID,1004.23,VALID,0,VALID,83.5439,VALID,0.0815089,VALID,25.7674,VALID,356,VALID,2.0082,
2012-01-10, 00:25:04,VALID,1004.24,VALID,0,VALID,83.4905,VALID,0,VALID,25.7869,VALID,353,VALID,1.71797,
2012-01-10, 00:26:04,VALID,1004.25,VALID,0,VALID,83.0938,VALID,0,VALID,25.8259,VALID,11,VALID,2.21836,
2012-01-10, 00:27:04,VALID,1004.25,VALID,0,VALID,83.2692,VALID,0,VALID,25.8648,VALID,9,VALID,1.36367,
2012-01-10, 00:28:04,VALID,1004.24,VALID,0,VALID,83.254,VALID,0,VALID,25.8239,VALID,352,VALID,1.31406,
2012-01-10, 00:29:04,VALID,1004.22,VALID,0,VALID,83.3989,VALID,0.0815089,VALID,25.8259,VALID,7,VALID,1.77344,
2012-01-10, 00:30:04,VALID,1004.25,VALID,0,VALID,83.4371,VALID,0,VALID,25.785,VALID,10,VALID,2.02656,
2012-01-10, 00:31:04,VALID,1004.2,VALID,0,VALID,83.6736,VALID,0,VALID,25.8064,VALID,357,VALID,1.1832,
2012-01-10, 00:32:04,VALID,1004.18,VALID,0,VALID,83.7422,VALID,0,VALID,25.7694,VALID,13,VALID,1.74258,
2012-01-10, 00:33:04,VALID,1004.16,VALID,0,VALID,83.7041,VALID,0,VALID,25.746,VALID,360,VALID,1.82734,
2012-01-10, 00:34:04,VALID,1004.13,VALID,0,VALID,83.5057,VALID,0,VALID,25.7655,VALID,360,VALID,1.42188,
2012-01-10, 00:35:04,VALID,1004.12,VALID,0,VALID,83.5362,VALID,0,VALID,25.7655,VALID,15,VALID,1.91562,
2012-01-10, 00:36:04,VALID,1004.09,VALID,0,VALID,83.3989,VALID,0,VALID,25.8064,VALID,4,VALID,1.52188,
2012-01-10, 00:37:04,VALID,1004.08,VALID,0,VALID,83.5515,VALID,0,VALID,25.7869,VALID,20,VALID,1.16484,
2012-01-10, 00:38:04,VALID,1004.06,VALID,0,VALID,83.6278,VALID,0,VALID,25.7265,VALID,348,VALID,1.44141,
2012-01-10, 00:39:04,VALID,1004.05,VALID,0,VALID,83.9024,VALID,0,VALID,25.7265,VALID,352,VALID,1.00078,
2012-01-10, 00:40:04,VALID,1004.05,VALID,0,VALID,83.994,VALID,0,VALID,25.6876,VALID,356,VALID,1.34063,
2012-01-10, 00:41:04,VALID,1004.03,VALID,0,VALID,84.2228,VALID,0,VALID,25.67,VALID,12,VALID,1.22148,
2012-01-10, 00:42:04,VALID,1004.03,VALID,0,VALID,84.2457,VALID,0,VALID,25.67,VALID,17,VALID,1.21094,
2012-01-10, 00:43:04,VALID,1004.01,VALID,0,VALID,84.2381,VALID,0,VALID,25.6311,VALID,357,VALID,1.1793,
2012-01-10, 00:44:04,VALID,1003.99,VALID,0,VALID,84.2457,VALID,0,VALID,25.5902,VALID,353,VALID,1.97461,
2012-01-10, 00:45:04,VALID,1003.99,VALID,0,VALID,84.2762,VALID,0,VALID,25.6506,VALID,355,VALID,1.28711,
2012-01-10, 00:46:04,VALID,1003.99,VALID,0,VALID,84.1542,VALID,0,VALID,25.6311,VALID,352,VALID,1.53945,
2012-01-10, 00:47:04,VALID,1003.98,VALID,0,VALID,84.1923,VALID,0,VALID,25.6506,VALID,21,VALID,1.84883,
2012-01-10, 00:48:04,VALID,1003.96,VALID,0,VALID,84.1466,VALID,0,VALID,25.6681,VALID,6,VALID,1.18281,
2012-01-10, 00:49:04,VALID,1003.98,VALID,0,VALID,84.1084,VALID,0,VALID,25.6292,VALID,3,VALID,1.53398,
2012-01-10, 00:50:04,VALID,1003.97,VALID,0,VALID,84.0016,VALID,0,VALID,25.6292,VALID,7,VALID,1.78125,
2012-01-10, 00:51:04,VALID,1003.94,VALID,0,VALID,84.3068,VALID,0,VALID,25.6292,VALID,10,VALID,1.23164,
2012-01-10, 00:52:04,VALID,1003.93,VALID,0,VALID,84.2076,VALID,0,VALID,25.6292,VALID,16,VALID,1.46875,
2012-01-10, 00:53:04,VALID,1003.91,VALID,0,VALID,84.2839,VALID,0,VALID,25.6506,VALID,13,VALID,1.11484,
2012-01-10, 00:54:04,VALID,1003.88,VALID,0,VALID,84.2381,VALID,0,VALID,25.6506,VALID,2,VALID,1.38164,
2012-01-10, 00:55:04,VALID,1003.88,VALID,0,VALID,84.5127,VALID,0,VALID,25.6116,VALID,39,VALID,0.714844,
2012-01-10, 00:56:04,VALID,1003.85,VALID,0,VALID,84.7416,VALID,0,VALID,25.5921,VALID,11,VALID,0.529688,
2012-01-10, 00:57:04,VALID,1003.83,VALID,0,VALID,85.0239,VALID,0,VALID,25.5123,VALID,19,VALID,0.847656,
2012-01-10, 00:58:04,VALID,1003.85,VALID,0,VALID,85.2833,VALID,0,VALID,25.4539,VALID,22,VALID,1.22305,
2012-01-10, 00:59:04,VALID,1003.81,VALID,0,VALID,85.5884,VALID,0,VALID,25.4363,VALID,21,VALID,0.623047,
2012-01-10, 01:00:04,VALID,1003.83,VALID,0,VALID,85.7639,VALID,0,VALID,25.376,VALID,14,VALID,0.656641,
2012-01-10, 01:01:04,VALID,1003.78,VALID,0,VALID,85.8936,VALID,0,VALID,25.3584,VALID,11,VALID,0.826563,
2012-01-10, 01:02:04,VALID,1003.78,VALID,0,VALID,85.9393,VALID,0,VALID,25.339,VALID,13,VALID,0.700781,
2012-01-10, 01:03:04,VALID,1003.79,VALID,0,VALID,86.0843,VALID,0,VALID,25.3604,VALID,14,VALID,0.794531,
2012-01-10, 01:04:04,VALID,1003.77,VALID,0,VALID,85.8783,VALID,0,VALID,25.3195,VALID,357,VALID,1.24023,
2012-01-10, 01:05:04,VALID,1003.72,VALID,0,VALID,85.6494,VALID,0,VALID,25.3584,VALID,360,VALID,1.56445,
2012-01-10, 01:06:04,VALID,1003.72,VALID,0,VALID,85.6266,VALID,0,VALID,25.4169,VALID,6,VALID,0.804688,
2012-01-10, 01:07:04,VALID,1003.7,VALID,0,VALID,85.4358,VALID,0,VALID,25.4558,VALID,352,VALID,1.05352,
2012-01-10, 01:08:04,VALID,1003.68,VALID,0,VALID,85.2146,VALID,0,VALID,25.4558,VALID,355,VALID,1.90703,
2012-01-10, 01:09:04,VALID,1003.7,VALID,0,VALID,84.9628,VALID,0,VALID,25.5357,VALID,355,VALID,1.25391,
2012-01-10, 01:10:04,VALID,1003.67,VALID,0,VALID,84.6729,VALID,0,VALID,25.5337,VALID,358,VALID,1.49023,
2012-01-10, 01:11:04,VALID,1003.65,VALID,0,VALID,84.6272,VALID,0,VALID,25.5727,VALID,356,VALID,1.4207,
2012-01-10, 01:12:04,VALID,1003.62,VALID,0,VALID,84.383,VALID,0,VALID,25.6116,VALID,8,VALID,1.29336,
2012-01-10, 01:13:04,VALID,1003.62,VALID,0,VALID,84.1389,VALID,0,VALID,25.6311,VALID,351,VALID,1.32578,
2012-01-10, 01:14:04,VALID,1003.63,VALID,0,VALID,84.1771,VALID,0,VALID,25.6506,VALID,359,VALID,1.36602,
2012-01-10, 01:15:04,VALID,1003.61,VALID,0,VALID,84.116,VALID,0,VALID,25.6292,VALID,351,VALID,1.12891,
2012-01-10, 01:16:04,VALID,1003.61,VALID,0,VALID,83.9558,VALID,0,VALID,25.6506,VALID,359,VALID,1.54414,
2012-01-10, 01:17:04,VALID,1003.61,VALID,0,VALID,84.0931,VALID,0,VALID,25.6506,VALID,351,VALID,0.86875,
2012-01-10, 01:18:04,VALID,1003.6,VALID,0,VALID,83.8414,VALID,0,VALID,25.67,VALID,352,VALID,1.20938,
2012-01-10, 01:19:04,VALID,1003.6,VALID,0,VALID,83.9024,VALID,0,VALID,25.6486,VALID,340,VALID,0.862109,
2012-01-10, 01:20:04,VALID,1003.6,VALID,0,VALID,83.9711,VALID,0,VALID,25.6506,VALID,337,VALID,0.778906,
2012-01-10, 01:21:04,VALID,1003.6,VALID,0,VALID,84.1542,VALID,0,VALID,25.6506,VALID,308,VALID,0.264453,
2012-01-10, 01:22:04,VALID,1003.61,VALID,0,VALID,84.383,VALID,0,VALID,25.6116,VALID,348,VALID,0.508594,
2012-01-10, 01:23:04,VALID,1003.59,VALID,0,VALID,84.5356,VALID,0,VALID,25.5921,VALID,348,VALID,0.751562,
2012-01-10, 01:24:04,VALID,1003.57,VALID,0,VALID,84.7874,VALID,0,VALID,25.5337,VALID,337,VALID,0.772266,
2012-01-10, 01:25:04,VALID,1003.59,VALID,0,VALID,85.001,VALID,0,VALID,25.4948,VALID,331,VALID,0.185547,
2012-01-10, 01:26:04,VALID,1003.56,VALID,0,VALID,85.2222,VALID,0,VALID,25.4558,VALID,331,VALID,0.426562,
2012-01-10, 01:27:04,VALID,1003.54,VALID,0,VALID,85.3214,VALID,0,VALID,25.3955,VALID,341,VALID,0.194531,
2012-01-10, 01:28:04,VALID,1003.53,VALID,0,VALID,85.6571,VALID,0,VALID,25.3974,VALID,341,VALID,0.053125,
2012-01-10, 01:29:04,VALID,1003.5,VALID,0,VALID,85.7562,VALID,0,VALID,25.3584,VALID,341,VALID,0.111719,
2012-01-10, 01:30:04,VALID,1003.49,VALID,0,VALID,85.8402,VALID,0,VALID,25.3195,VALID,341,VALID,0.351953,
2012-01-10, 01:31:04,VALID,1003.48,VALID,0,VALID,85.947,VALID,0,VALID,25.3,VALID,341,VALID,0,
2012-01-10, 01:32:04,VALID,1003.49,VALID,0,VALID,86.069,VALID,0,VALID,25.2611,VALID,341,VALID,0,
2012-01-10, 01:33:04,VALID,1003.48,VALID,0,VALID,86.3513,VALID,0,VALID,25.2221,VALID,341,VALID,0.249609,
2012-01-10, 01:34:04,VALID,1003.49,VALID,0,VALID,86.8243,VALID,0,VALID,25.1423,VALID,342,VALID,0.776953,
2012-01-10, 01:35:04,VALID,1003.48,VALID,0,VALID,86.9998,VALID,0,VALID,25.0858,VALID,342,VALID,0.758594,
2012-01-10, 01:36:04,VALID,1003.49,VALID,0,VALID,87.5948,VALID,0,VALID,25.0469,VALID,342,VALID,0.644922,
2012-01-10, 01:37:04,VALID,1003.49,VALID,0,VALID,87.7474,VALID,0,VALID,25.0079,VALID,342,VALID,0.597656,
2012-01-10, 01:38:04,VALID,1003.45,VALID,0,VALID,88.0296,VALID,0,VALID,24.969,VALID,342,VALID,0.586719,
2012-01-10, 01:39:04,VALID,1003.47,VALID,0,VALID,88.1975,VALID,0,VALID,24.9495,VALID,139,VALID,0.608984,
2012-01-10, 01:40:04,VALID,1003.46,VALID,0,VALID,88.1975,VALID,0,VALID,24.9087,VALID,151,VALID,0.950391,
2012-01-10, 01:41:04,VALID,1003.45,VALID,0,VALID,88.3958,VALID,0,VALID,24.9106,VALID,152,VALID,0.469141,
2012-01-10, 01:42:04,VALID,1003.41,VALID,0,VALID,88.5103,VALID,0,VALID,24.8697,VALID,152,VALID,0.28125,
2012-01-10, 01:43:04,VALID,1003.43,VALID,0,VALID,88.6476,VALID,0,VALID,24.8522,VALID,152,VALID,0.0046875,
2012-01-10, 01:44:04,VALID,1003.44,VALID,0,VALID,88.7925,VALID,0,VALID,24.7724,VALID,152,VALID,0,
2012-01-10, 01:45:04,VALID,1003.43,VALID,0,VALID,88.9375,VALID,0,VALID,24.7937,VALID,152,VALID,0,
2012-01-10, 01:46:04,VALID,1003.45,VALID,0,VALID,89.0824,VALID,0,VALID,24.7548,VALID,152,VALID,0,
2012-01-10, 01:47:04,VALID,1003.4,VALID,0,VALID,89.2121,VALID,0,VALID,24.714,VALID,152,VALID,0,
2012-01-10, 01:48:04,VALID,1003.39,VALID,0,VALID,89.3418,VALID,0,VALID,24.675,VALID,152,VALID,0,
2012-01-10, 01:49:04,VALID,1003.39,VALID,0,VALID,89.4944,VALID,0,VALID,24.6769,VALID,152,VALID,0.348828,
2012-01-10, 01:50:04,VALID,1003.36,VALID,0,VALID,89.7919,VALID,0,VALID,24.638,VALID,152,VALID,0.236328,
2012-01-10, 01:51:04,VALID,1003.35,VALID,0,VALID,89.9903,VALID,0,VALID,24.599,VALID,152,VALID,0.314063,
2012-01-10, 01:52:04,VALID,1003.34,VALID,0,VALID,90.1505,VALID,0,VALID,24.5601,VALID,152,VALID,0.159766,
2012-01-10, 01:53:04,VALID,1003.31,VALID,0,VALID,90.3031,VALID,0,VALID,24.5212,VALID,152,VALID,0,
2012-01-10, 01:54:04,VALID,1003.28,VALID,0,VALID,90.4404,VALID,0,VALID,24.4804,VALID,152,VALID,0,
2012-01-10, 01:55:04,VALID,1003.24,VALID,0,VALID,90.5853,VALID,0,VALID,24.4628,VALID,152,VALID,0.00429688,
2012-01-10, 01:56:04,VALID,1003.24,VALID,0,VALID,90.6769,VALID,0,VALID,24.4238,VALID,152,VALID,0.121094,
2012-01-10, 01:57:04,VALID,1003.23,VALID,0,VALID,90.8447,VALID,0,VALID,24.383,VALID,152,VALID,0.137109,
2012-01-10, 01:58:04,VALID,1003.22,VALID,0,VALID,91.0278,VALID,0,VALID,24.3654,VALID,152,VALID,0.260547,
2012-01-10, 01:59:05,VALID,1003.17,VALID,0,VALID,91.2185,VALID,0,VALID,24.3654,VALID,152,VALID,0.182812,
2012-01-10, 02:00:04,VALID,1003.2,VALID,0,VALID,91.3253,VALID,0,VALID,24.3265,VALID,152,VALID,0.0820313,
2012-01-10, 02:01:04,VALID,1003.16,VALID,0,VALID,91.4016,VALID,0,VALID,24.2875,VALID,152,VALID,0,
2012-01-10, 02:02:04,VALID,1003.14,VALID,0,VALID,91.5237,VALID,0,VALID,24.2273,VALID,152,VALID,0,
2012-01-10, 02:03:05,VALID,1003.13,VALID,0,VALID,91.7144,VALID,0,VALID,24.2097,VALID,149,VALID,0.372656,
2012-01-10, 02:04:05,VALID,1003.12,VALID,0,VALID,91.8517,VALID,0,VALID,24.1884,VALID,149,VALID,0.173438,
2012-01-10, 02:05:05,VALID,1003.12,VALID,0,VALID,91.9662,VALID,0,VALID,24.1707,VALID,107,VALID,0.314844,
2012-01-10, 02:06:05,VALID,1003.09,VALID,0,VALID,92.0958,VALID,0,VALID,24.1494,VALID,107,VALID,0.4625,
2012-01-10, 02:07:05,VALID,1003.1,VALID,0,VALID,92.2179,VALID,0,VALID,24.13,VALID,107,VALID,0.2875,
2012-01-10, 02:08:05,VALID,1003.07,VALID,0,VALID,92.2942,VALID,0.0815089,VALID,24.1513,VALID,107,VALID,0.280469,
2012-01-10, 02:09:05,VALID,1003.09,VALID,0,VALID,92.3476,VALID,0,VALID,24.1105,VALID,107,VALID,0.238281,
2012-01-10, 02:10:05,VALID,1003.09,VALID,0,VALID,92.3552,VALID,0,VALID,24.1318,VALID,107,VALID,0,
2012-01-10, 02:11:05,VALID,1003.11,VALID,0,VALID,92.4086,VALID,0,VALID,24.1123,VALID,107,VALID,0,
2012-01-10, 02:12:05,VALID,1003.1,VALID,0,VALID,92.4697,VALID,0,VALID,24.1105,VALID,107,VALID,0,
2012-01-10, 02:13:05,VALID,1003.12,VALID,0,VALID,92.5078,VALID,0,VALID,24.1105,VALID,107,VALID,0,
2012-01-10, 02:14:05,VALID,1003.11,VALID,0,VALID,92.5231,VALID,0,VALID,24.1105,VALID,107,VALID,0,
2012-01-10, 02:15:05,VALID,1003.1,VALID,0,VALID,92.5002,VALID,0,VALID,24.091,VALID,107,VALID,0,
2012-01-10, 02:16:05,VALID,1003.09,VALID,0,VALID,92.5002,VALID,0.0815089,VALID,24.1105,VALID,107,VALID,0,
2012-01-10, 02:17:05,VALID,1003.1,VALID,0,VALID,92.4697,VALID,0,VALID,24.1123,VALID,107,VALID,0,
2012-01-10, 02:18:05,VALID,1003.07,VALID,0,VALID,92.462,VALID,0,VALID,24.0697,VALID,107,VALID,0,
2012-01-10, 02:19:05,VALID,1003.07,VALID,0,VALID,92.4468,VALID,0,VALID,24.1105,VALID,107,VALID,0,
2012-01-10, 02:20:05,VALID,1003.07,VALID,0,VALID,92.4697,VALID,0,VALID,24.1123,VALID,107,VALID,0,
2012-01-10, 02:21:05,VALID,1003.09,VALID,0,VALID,92.4163,VALID,0,VALID,24.091,VALID,107,VALID,0,
2012-01-10, 02:22:05,VALID,1003.08,VALID,0,VALID,92.4391,VALID,0,VALID,24.0716,VALID,107,VALID,0,
2012-01-10, 02:23:05,VALID,1003.1,VALID,0,VALID,92.401,VALID,0,VALID,24.0734,VALID,107,VALID,0,
2012-01-10, 02:24:05,VALID,1003.11,VALID,0,VALID,92.3476,VALID,0,VALID,24.0132,VALID,69,VALID,0,
2012-01-10, 02:25:05,VALID,1003.13,VALID,0,VALID,92.4773,VALID,0,VALID,23.9937,VALID,11,VALID,0.665625,
2012-01-10, 02:26:05,VALID,1003.13,VALID,0,VALID,92.5993,VALID,0.0815089,VALID,23.9742,VALID,11,VALID,0.394531,
2012-01-10, 02:27:05,VALID,1003.13,VALID,0,VALID,92.6756,VALID,0,VALID,23.9548,VALID,11,VALID,0.45625,
2012-01-10, 02:28:05,VALID,1003.08,VALID,0,VALID,92.7367,VALID,0,VALID,23.9159,VALID,11,VALID,0.434766,
2012-01-10, 02:29:05,VALID,1003.1,VALID,0,VALID,92.7901,VALID,0.0815089,VALID,23.8964,VALID,11,VALID,0.482812,
2012-01-10, 02:30:05,VALID,1003.08,VALID,0,VALID,92.8587,VALID,0.0815089,VALID,23.8575,VALID,11,VALID,0.485156,
2012-01-10, 02:31:05,VALID,1003.07,VALID,0,VALID,92.935,VALID,0.0815089,VALID,23.838,VALID,11,VALID,0.473047,
2012-01-10, 02:32:05,VALID,1003.06,VALID,0,VALID,93.08,VALID,0.0815089,VALID,23.7778,VALID,11,VALID,0.394922,
2012-01-10, 02:33:05,VALID,1003.09,VALID,0,VALID,93.1105,VALID,0.0815089,VALID,23.7583,VALID,11,VALID,0.188672,
2012-01-10, 02:34:05,VALID,1003.07,VALID,0,VALID,93.1715,VALID,0.0815089,VALID,23.7407,VALID,11,VALID,0,
2012-01-10, 02:35:05,VALID,1003.08,VALID,0,VALID,93.2402,VALID,0,VALID,23.7425,VALID,11,VALID,0,
2012-01-10, 02:36:05,VALID,1003.09,VALID,0,VALID,93.4385,VALID,0,VALID,23.7194,VALID,11,VALID,0.248437,
2012-01-10, 02:37:05,VALID,1003.07,VALID,0,VALID,93.4156,VALID,0,VALID,23.7212,VALID,11,VALID,0.376953,
2012-01-10, 02:38:05,VALID,1003.09,VALID,0,VALID,93.4004,VALID,0.0815089,VALID,23.7212,VALID,4,VALID,0.443359,
2012-01-10, 02:39:05,VALID,1003.11,VALID,0,VALID,93.2554,VALID,0.0815089,VALID,23.7017,VALID,356,VALID,0.766797,
2012-01-10, 02:40:05,VALID,1003.12,VALID,0,VALID,93.1791,VALID,0.0815089,VALID,23.661,VALID,355,VALID,0.722656,
2012-01-10, 02:41:05,VALID,1003.13,VALID,0,VALID,93.4156,VALID,0,VALID,23.6628,VALID,355,VALID,0.636719,
2012-01-10, 02:42:05,VALID,1003.11,VALID,0,VALID,93.553,VALID,0.0815089,VALID,23.6823,VALID,355,VALID,0.335938,
2012-01-10, 02:43:05,VALID,1003.12,VALID,0,VALID,93.4767,VALID,0.0815089,VALID,23.6823,VALID,355,VALID,0.248047,
2012-01-10, 02:44:05,VALID,1003.14,VALID,0,VALID,93.4919,VALID,0.0815089,VALID,23.6823,VALID,355,VALID,0.0503906,
2012-01-10, 02:45:05,VALID,1003.14,VALID,0,VALID,93.4996,VALID,0,VALID,23.6841,VALID,355,VALID,0.00195313,
2012-01-10, 02:46:05,VALID,1003.16,VALID,0,VALID,93.3546,VALID,0,VALID,23.6239,VALID,50,VALID,0.594531,
2012-01-10, 02:47:05,VALID,1003.15,VALID,0,VALID,93.4767,VALID,0,VALID,23.6062,VALID,50,VALID,0.485156,
2012-01-10, 02:48:05,VALID,1003.15,VALID,0,VALID,93.5301,VALID,0,VALID,23.6062,VALID,50,VALID,0.507031,
2012-01-10, 02:49:05,VALID,1003.14,VALID,0,VALID,93.5377,VALID,0,VALID,23.6062,VALID,50,VALID,0.522266,
2012-01-10, 02:50:05,VALID,1003.17,VALID,0,VALID,93.614,VALID,0,VALID,23.5673,VALID,50,VALID,0.578906,
2012-01-10, 02:51:05,VALID,1003.16,VALID,0,VALID,93.6674,VALID,0,VALID,23.5673,VALID,50,VALID,0.207031,
2012-01-10, 02:52:05,VALID,1003.18,VALID,0,VALID,93.675,VALID,0,VALID,23.5266,VALID,50,VALID,0.138281,
2012-01-10, 02:53:05,VALID,1003.14,VALID,0,VALID,93.6064,VALID,0,VALID,23.5071,VALID,50,VALID,0.270312,
2012-01-10, 02:54:05,VALID,1003.13,VALID,0,VALID,93.5911,VALID,0,VALID,23.4877,VALID,50,VALID,0.269531,
2012-01-10, 02:55:05,VALID,1003.14,VALID,0,VALID,93.6064,VALID,0,VALID,23.4487,VALID,50,VALID,0.229297,
2012-01-10, 02:56:05,VALID,1003.16,VALID,0,VALID,93.6826,VALID,0,VALID,23.47,VALID,50,VALID,0.132422,
2012-01-10, 02:57:05,VALID,1003.14,VALID,0,VALID,93.6903,VALID,0,VALID,23.4098,VALID,50,VALID,0,
2012-01-10, 02:58:05,VALID,1003.18,VALID,0,VALID,93.7513,VALID,0,VALID,23.4311,VALID,50,VALID,0.512891,
2012-01-10, 02:59:05,VALID,1003.16,VALID,0,VALID,93.7742,VALID,0,VALID,23.4098,VALID,50,VALID,0.421875,
2012-01-10, 03:00:05,VALID,1003.17,VALID,0,VALID,93.8429,VALID,0,VALID,23.3921,VALID,50,VALID,0.620313,
2012-01-10, 03:01:05,VALID,1003.13,VALID,0,VALID,93.8429,VALID,0,VALID,23.4116,VALID,42,VALID,0.603516,
2012-01-10, 03:02:05,VALID,1003.13,VALID,0,VALID,93.8276,VALID,0,VALID,23.3514,VALID,3,VALID,0.746094,
2012-01-10, 03:03:05,VALID,1003.09,VALID,0,VALID,93.9039,VALID,0,VALID,23.332,VALID,3,VALID,0.541797,
2012-01-10, 03:04:05,VALID,1003.11,VALID,0,VALID,94.0717,VALID,0,VALID,23.3532,VALID,3,VALID,0.476563,
2012-01-10, 03:05:05,VALID,1003.09,VALID,0,VALID,94.1709,VALID,0,VALID,23.3727,VALID,3,VALID,0.442578,
2012-01-10, 03:06:05,VALID,1003.09,VALID,0,VALID,94.2319,VALID,0,VALID,23.3921,VALID,3,VALID,0.507031,
2012-01-10, 03:07:05,VALID,1003.09,VALID,0,VALID,94.2243,VALID,0,VALID,23.3904,VALID,3,VALID,0.493359,
2012-01-10, 03:08:05,VALID,1003.08,VALID,0,VALID,94.2777,VALID,0,VALID,23.3904,VALID,3,VALID,0.491406,
2012-01-10, 03:09:05,VALID,1003.07,VALID,0,VALID,94.2624,VALID,0,VALID,23.4311,VALID,3,VALID,0.446875,
2012-01-10, 03:10:05,VALID,1003.06,VALID,0,VALID,94.2777,VALID,0,VALID,23.4098,VALID,3,VALID,0.338672,
2012-01-10, 03:11:05,VALID,1003.05,VALID,0,VALID,94.2472,VALID,0,VALID,23.4311,VALID,3,VALID,0.258984,
2012-01-10, 03:12:05,VALID,1003.06,VALID,0,VALID,94.209,VALID,0,VALID,23.3904,VALID,3,VALID,0.49375,
2012-01-10, 03:13:05,VALID,1003.06,VALID,0,VALID,94.1785,VALID,0,VALID,23.3904,VALID,3,VALID,0.456641,
2012-01-10, 03:14:05,VALID,1003.09,VALID,0,VALID,94.2319,VALID,0,VALID,23.3904,VALID,3,VALID,0.61875,
2012-01-10, 03:15:05,VALID,1003.07,VALID,0,VALID,94.209,VALID,0,VALID,23.3921,VALID,3,VALID,0.505078,
2012-01-10, 03:16:05,VALID,1003.09,VALID,0,VALID,94.209,VALID,0,VALID,23.4116,VALID,3,VALID,0.616016,
2012-01-10, 03:17:05,VALID,1003.08,VALID,0,VALID,94.2472,VALID,0,VALID,23.3921,VALID,3,VALID,0.509766,
2012-01-10, 03:18:05,VALID,1003.09,VALID,0,VALID,94.3387,VALID,0,VALID,23.3921,VALID,3,VALID,0.3625,
2012-01-10, 03:19:05,VALID,1003.14,VALID,0,VALID,94.3311,VALID,0,VALID,23.3709,VALID,3,VALID,0.350781,
2012-01-10, 03:20:05,VALID,1003.11,VALID,0,VALID,94.3387,VALID,0,VALID,23.3904,VALID,3,VALID,0.555078,
2012-01-10, 03:21:05,VALID,1003.17,VALID,0,VALID,94.3387,VALID,0,VALID,23.3921,VALID,3,VALID,0.25,
2012-01-10, 03:22:05,VALID,1003.16,VALID,0,VALID,94.3082,VALID,0,VALID,23.3709,VALID,3,VALID,0.308203,
2012-01-10, 03:23:05,VALID,1003.15,VALID,0,VALID,94.3158,VALID,0,VALID,23.3727,VALID,3,VALID,0.483984,
2012-01-10, 03:24:05,VALID,1003.17,VALID,0,VALID,94.3387,VALID,0,VALID,23.3514,VALID,3,VALID,0.171094,
2012-01-10, 03:25:05,VALID,1003.16,VALID,0,VALID,94.3158,VALID,0,VALID,23.3532,VALID,3,VALID,0.0777344,
2012-01-10, 03:26:05,VALID,1003.19,VALID,0,VALID,94.3235,VALID,0,VALID,23.3532,VALID,3,VALID,0.123828,
2012-01-10, 03:27:05,VALID,1003.2,VALID,0,VALID,94.3311,VALID,0,VALID,23.3532,VALID,3,VALID,0.224609,
2012-01-10, 03:28:05,VALID,1003.2,VALID,0,VALID,94.3464,VALID,0,VALID,23.3337,VALID,3,VALID,0.173438,
2012-01-10, 03:29:05,VALID,1003.21,VALID,0,VALID,94.3921,VALID,0,VALID,23.3532,VALID,3,VALID,0.155859,
2012-01-10, 03:30:05,VALID,1003.19,VALID,0,VALID,94.3921,VALID,0,VALID,23.332,VALID,3,VALID,0.242578,
2012-01-10, 03:31:05,VALID,1003.21,VALID,0,VALID,94.3311,VALID,0,VALID,23.3337,VALID,3,VALID,0.260938,
2012-01-10, 03:32:05,VALID,1003.2,VALID,0,VALID,94.3616,VALID,0,VALID,23.3143,VALID,3,VALID,0.274609,
2012-01-10, 03:33:05,VALID,1003.19,VALID,0,VALID,94.4074,VALID,0,VALID,23.3337,VALID,3,VALID,0.383594,
2012-01-10, 03:34:05,VALID,1003.22,VALID,0,VALID,94.4074,VALID,0,VALID,23.2931,VALID,3,VALID,0.490625,
2012-01-10, 03:35:05,VALID,1003.22,VALID,0,VALID,94.3769,VALID,0,VALID,23.3143,VALID,3,VALID,0.392188,
2012-01-10, 03:36:05,VALID,1003.21,VALID,0,VALID,94.3082,VALID,0,VALID,23.2948,VALID,3,VALID,0.353125,
2012-01-10, 03:37:05,VALID,1003.23,VALID,0,VALID,94.3311,VALID,0,VALID,23.2754,VALID,3,VALID,0.485938,
2012-01-10, 03:38:05,VALID,1003.22,VALID,0,VALID,94.3387,VALID,0,VALID,23.2347,VALID,2,VALID,0.633984,
2012-01-10, 03:39:05,VALID,1003.23,VALID,0,VALID,94.3235,VALID,0,VALID,23.2364,VALID,2,VALID,0.692969,
2012-01-10, 03:40:05,VALID,1003.21,VALID,0,VALID,94.3464,VALID,0,VALID,23.2152,VALID,2,VALID,0.690234,
2012-01-10, 03:41:05,VALID,1003.22,VALID,0,VALID,94.3387,VALID,0,VALID,23.1975,VALID,2,VALID,0.679297,
2012-01-10, 03:42:05,VALID,1003.22,VALID,0,VALID,94.3692,VALID,0,VALID,23.1763,VALID,2,VALID,0.632813,
2012-01-10, 03:43:05,VALID,1003.21,VALID,0,VALID,94.3921,VALID,0,VALID,23.1975,VALID,2,VALID,0.541797,
2012-01-10, 03:44:05,VALID,1003.23,VALID,0,VALID,94.4074,VALID,0,VALID,23.1568,VALID,2,VALID,0.471484,
2012-01-10, 03:45:05,VALID,1003.21,VALID,0,VALID,94.3998,VALID,0,VALID,23.1586,VALID,2,VALID,0.367188,
2012-01-10, 03:46:05,VALID,1003.21,VALID,0,VALID,94.4074,VALID,0,VALID,23.1391,VALID,2,VALID,0.406641,
2012-01-10, 03:47:05,VALID,1003.23,VALID,0,VALID,94.4227,VALID,0,VALID,23.1374,VALID,2,VALID,0.424219,